{"data":{"norad_id":69470,"intl_designator":"2026-127AD","name":"STARLINK-37686","alt_names":[],"object_type":"PAYLOAD","status":"ACTIVE","operator":null,"country":"US","launch_date":"2026-06-08","launch_site_code":"AFETR","launch_vehicle":null,"mission":null,"orbit_class":"UNKNOWN","rcs_meters":null,"size_class":null,"mass_kg":null,"dimensions":null,"purposes":["comms"],"wikipedia_slug":null,"has_3d_model":false,"image_url":null,"decayed_at":null,"tle_current":{"epoch":"2026-09-20T02:58:26.224032Z","epoch_age_seconds":57986,"freshness":"FRESH","line1":"1 69470U 26127AD  26263.12391463  .00010663  00000+0  32625-3 0  9998","line2":"2 69470  53.1589 167.5159 0001671  86.9468 273.1726 15.34403054 16137","mean_motion":15.34403054,"eccentricity":0.0001671,"inclination_deg":53.1589,"raan_deg":167.5159,"arg_perigee_deg":86.9468,"mean_anomaly_deg":273.1726,"bstar":0.00032625,"rev_number":1613,"period_min":93.847571291396,"perigee_km":461.55106020321,"apogee_km":463.83726597791,"semimajor_km":6840.8311630906,"source":"CELESTRAK","updated_at":"2026-09-20T09:00:44.204516Z"}}}